Time,TemperatureF,DewpointF,PressureIn,WindDirection,WindDirectionDegrees,WindSpeedMPH,WindSpeedGustMPH,Humidity,HourlyPrecipIn,Conditions,Clouds,dailyrainin,SoftwareType,DateUTC
2013-05-26 00:01:00,32.5,30.4,29.75,WNW,299,3.5,3.5,92,0.00,-RA,,0.00,WeatherDisplay:10.37,2013-05-26 04:01:00,
2013-05-26 00:02:00,32.6,30.5,29.75,WNW,299,2.3,2.3,92,0.00,-RA,,0.00,WeatherDisplay:10.37,2013-05-26 04:02:00,
2013-05-26 00:07:00,32.5,30.4,29.75,WNW,299,4.6,4.6,92,0.00,-RA,,0.00,WeatherDisplay:10.37,2013-05-26 04:07:00,
2013-05-26 00:12:00,32.4,30.3,29.75,SSW,194,3.5,3.5,92,0.00,-RA,,0.00,WeatherDisplay:10.37,2013-05-26 04:12:00,
2013-05-26 00:17:00,32.4,30.3,29.75,SSW,211,3.5,3.5,92,0.00,-RA,,0.00,WeatherDisplay:10.37,2013-05-26 04:17:00,
2013-05-26 00:22:00,32.3,30.2,29.75,SSW,212,3.5,3.5,92,0.00,-RA,,0.00,WeatherDisplay:10.37,2013-05-26 04:22:00,
2013-05-26 00:27:00,32.4,30.3,29.75,SSW,212,3.5,3.5,92,0.00,-RA,,0.00,WeatherDisplay:10.37,2013-05-26 04:27:00,
2013-05-26 00:32:00,32.4,30.3,29.75,SW,217,3.5,3.5,92,0.00,-RA,,0.00,WeatherDisplay:10.37,2013-05-26 04:32:00,
2013-05-26 00:37:00,32.7,30.6,29.75,WNW,303,2.3,2.3,92,0.00,-RA,,0.00,WeatherDisplay:10.37,2013-05-26 04:37:00,
2013-05-26 00:42:00,32.7,30.6,29.75,WNW,303,3.0,3.0,92,0.00,-RA,,0.00,WeatherDisplay:10.37,2013-05-26 04:42:00,
2013-05-26 00:47:00,33.1,31.0,29.75,WNW,303,2.3,2.3,92,0.00,-RA,,0.00,WeatherDisplay:10.37,2013-05-26 04:47:00,
2013-05-26 00:52:00,33.2,31.1,29.75,WNW,303,1.0,1.0,92,0.00,-RA,,0.00,WeatherDisplay:10.37,2013-05-26 04:52:00,
2013-05-26 00:57:00,33.8,31.7,29.75,WNW,303,1.0,1.0,92,0.00,-RA,,0.00,WeatherDisplay:10.37,2013-05-26 04:57:00,
2013-05-26 01:02:00,33.8,32.8,29.73,WNW,303,2.3,0.0,96,0.00,-RA,,0.00,WeatherDisplay:10.37,2013-05-26 05:02:00,
2013-05-26 01:07:00,33.9,32.9,29.73,WNW,303,3.5,3.5,96,0.00,-RA,,0.00,WeatherDisplay:10.37,2013-05-26 05:07:00,
2013-05-26 01:12:00,34.3,33.3,29.73,WNW,303,1.0,1.0,96,0.00,-RA,,0.00,WeatherDisplay:10.37,2013-05-26 05:12:00,
2013-05-26 01:17:00,34.1,33.1,29.73,WNW,302,1.1,1.1,96,0.00,-RA,,0.00,WeatherDisplay:10.37,2013-05-26 05:17:00,
2013-05-26 01:22:00,34.2,32.4,29.73,WNW,303,0.0,0.0,93,0.00,-RA,,0.00,WeatherDisplay:10.37,2013-05-26 05:22:00,
2013-05-26 01:27:00,34.4,32.6,29.73,WNW,303,1.1,0.0,93,0.00,-RA,,0.00,WeatherDisplay:10.37,2013-05-26 05:27:00,
2013-05-26 01:32:00,34.3,32.5,29.73,WNW,303,1.1,1.1,93,0.00,-RA,,0.00,WeatherDisplay:10.37,2013-05-26 05:32:00,
2013-05-26 01:37:00,34.4,32.6,29.73,WNW,303,1.1,1.1,93,0.00,-RA,,0.00,WeatherDisplay:10.37,2013-05-26 05:37:00,
2013-05-26 01:42:00,34.3,32.5,29.73,WNW,303,0.0,0.0,93,0.00,-RA,,0.00,WeatherDisplay:10.37,2013-05-26 05:42:00,
2013-05-26 01:47:00,34.7,32.9,29.73,WNW,302,1.1,1.1,93,0.00,-RA,,0.00,WeatherDisplay:10.37,2013-05-26 05:47:00,
2013-05-26 01:52:00,34.8,33.0,29.73,WNW,303,0.0,0.0,93,0.00,-RA,,0.00,WeatherDisplay:10.37,2013-05-26 05:52:00,
2013-05-26 01:57:00,34.7,32.9,29.73,WNW,303,1.1,1.1,93,0.00,-RA,,0.00,WeatherDisplay:10.37,2013-05-26 05:57:00,
2013-05-26 02:02:00,34.8,32.7,29.72,WNW,303,0.0,0.0,92,0.00,OVC,,0.00,WeatherDisplay:10.37,2013-05-26 06:02:00,
2013-05-26 02:07:00,34.5,32.4,29.72,WNW,303,1.1,1.1,92,0.00,OVC,,0.00,WeatherDisplay:10.37,2013-05-26 06:07:00,
2013-05-26 02:12:00,34.7,32.6,29.72,WNW,303,2.3,2.3,92,0.00,OVC,,0.00,WeatherDisplay:10.37,2013-05-26 06:12:00,
2013-05-26 02:17:00,34.6,32.5,29.72,WNW,303,1.1,1.1,92,0.00,OVC,,0.00,WeatherDisplay:10.37,2013-05-26 06:17:00,
2013-05-26 02:22:00,34.7,32.9,29.72,WNW,303,1.1,1.1,93,0.00,-RA,,0.00,WeatherDisplay:10.37,2013-05-26 06:22:00,
2013-05-26 02:27:00,34.7,32.9,29.72,WNW,303,1.1,1.1,93,0.00,-RA,,0.00,WeatherDisplay:10.37,2013-05-26 06:27:00,
2013-05-26 02:32:00,34.8,33.0,29.72,WNW,303,2.3,2.3,93,0.00,-RA,,0.00,WeatherDisplay:10.37,2013-05-26 06:32:00,
2013-05-26 02:37:00,34.9,33.1,29.72,WNW,303,2.3,2.3,93,0.00,-RA,,0.00,WeatherDisplay:10.37,2013-05-26 06:37:00,
2013-05-26 02:42:00,34.9,33.1,29.71,WNW,303,3.5,3.5,93,0.00,-RA,,0.00,WeatherDisplay:10.37,2013-05-26 06:42:00,
2013-05-26 02:47:00,35.1,33.3,29.71,WNW,303,5.8,5.8,93,0.00,-RA,,0.00,WeatherDisplay:10.37,2013-05-26 06:47:00,
2013-05-26 02:52:00,35.2,33.4,29.71,WNW,303,3.5,3.5,93,0.00,-RA,,0.00,WeatherDisplay:10.37,2013-05-26 06:52:00,
2013-05-26 02:57:00,35.0,33.2,29.71,WNW,303,3.5,3.5,93,0.00,-RA,,0.00,WeatherDisplay:10.37,2013-05-26 06:57:00,
2013-05-26 03:02:00,35.1,33.0,29.70,WNW,303,3.5,3.5,92,0.00,OVC,,0.00,WeatherDisplay:10.37,2013-05-26 07:02:00,
2013-05-26 03:07:00,35.0,32.9,29.70,WNW,303,1.1,1.1,92,0.00,OVC,,0.00,WeatherDisplay:10.37,2013-05-26 07:07:00,
2013-05-26 03:12:00,35.0,32.9,29.70,WNW,303,2.3,2.3,92,0.00,OVC,,0.00,WeatherDisplay:10.37,2013-05-26 07:12:00,
2013-05-26 03:17:00,34.9,32.8,29.70,WNW,303,2.3,2.3,92,0.00,OVC,,0.00,WeatherDisplay:10.37,2013-05-26 07:17:00,
2013-05-26 03:22:00,35.1,33.0,29.70,NW,304,2.0,2.0,92,0.00,OVC,,0.00,WeatherDisplay:10.37,2013-05-26 07:22:00,
2013-05-26 03:27:00,35.2,33.1,29.70,NW,304,1.1,0.0,92,0.00,OVC,,0.00,WeatherDisplay:10.37,2013-05-26 07:27:00,
2013-05-26 03:32:00,35.0,32.9,29.70,NW,304,2.3,2.3,92,0.00,OVC,,0.00,WeatherDisplay:10.37,2013-05-26 07:32:00,
2013-05-26 03:37:00,35.0,32.9,29.70,NW,304,2.3,2.3,92,0.00,OVC,,0.00,WeatherDisplay:10.37,2013-05-26 07:37:00,
2013-05-26 03:42:00,35.0,32.9,29.70,NW,304,2.3,2.3,92,0.00,OVC,,0.00,WeatherDisplay:10.37,2013-05-26 07:42:00,
2013-05-26 03:47:00,35.0,32.9,29.70,NW,304,1.1,1.1,92,0.00,OVC,,0.00,WeatherDisplay:10.37,2013-05-26 07:47:00,
2013-05-26 03:52:00,34.8,32.7,29.70,NW,304,2.3,2.3,92,0.00,OVC,,0.00,WeatherDisplay:10.37,2013-05-26 07:52:00,
2013-05-26 03:57:00,34.5,32.4,29.70,NW,304,2.3,2.3,92,0.00,OVC,,0.00,WeatherDisplay:10.37,2013-05-26 07:57:00,
2013-05-26 04:02:00,34.5,31.3,29.71,NW,304,2.3,2.3,88,0.00,OVC,,0.00,WeatherDisplay:10.37,2013-05-26 08:02:00,
2013-05-26 04:07:00,34.4,31.2,29.71,NW,304,3.5,3.5,88,0.00,OVC,,0.00,WeatherDisplay:10.37,2013-05-26 08:07:00,
2013-05-26 04:12:00,34.4,31.2,29.71,NW,304,2.3,2.3,88,0.00,OVC,,0.00,WeatherDisplay:10.37,2013-05-26 08:12:00,
2013-05-26 04:17:00,34.5,31.3,29.71,NW,304,2.3,2.3,88,0.00,OVC,,0.00,WeatherDisplay:10.37,2013-05-26 08:17:00,
2013-05-26 04:22:00,34.4,31.2,29.71,NW,304,2.3,2.3,88,0.00,OVC,,0.00,WeatherDisplay:10.37,2013-05-26 08:22:00,
2013-05-26 04:27:00,34.5,31.3,29.71,NW,304,3.5,3.5,88,0.00,OVC,,0.00,WeatherDisplay:10.37,2013-05-26 08:27:00,
2013-05-26 04:32:00,34.5,31.3,29.71,NW,304,2.3,2.3,88,0.00,OVC,,0.00,WeatherDisplay:10.37,2013-05-26 08:32:00,
2013-05-26 04:37:00,34.5,31.3,29.71,NW,304,2.3,2.3,88,0.00,OVC,,0.00,WeatherDisplay:10.37,2013-05-26 08:37:00,
2013-05-26 04:42:00,34.5,31.3,29.71,WNW,303,3.5,3.5,88,0.00,OVC,,0.00,WeatherDisplay:10.37,2013-05-26 08:42:00,
2013-05-26 04:47:00,34.6,31.4,29.71,WNW,303,2.0,2.0,88,0.00,OVC,,0.00,WeatherDisplay:10.37,2013-05-26 08:47:00,
2013-05-26 04:52:00,34.7,31.5,29.71,WNW,303,2.3,2.3,88,0.00,OVC,,0.00,WeatherDisplay:10.37,2013-05-26 08:52:00,
2013-05-26 04:57:00,34.6,31.4,29.71,WNW,303,2.0,2.0,88,0.00,OVC,,0.00,WeatherDisplay:10.37,2013-05-26 08:57:00,
2013-05-26 05:02:00,34.8,32.7,29.72,WNW,303,2.3,2.3,92,0.00,-RA,,0.00,WeatherDisplay:10.37,2013-05-26 09:02:00,
2013-05-26 05:07:00,34.7,32.6,29.72,WNW,303,3.5,3.5,92,0.00,-RA,,0.00,WeatherDisplay:10.37,2013-05-26 09:07:00,
2013-05-26 05:12:00,34.8,32.7,29.72,WNW,303,2.3,2.3,92,0.00,-RA,,0.00,WeatherDisplay:10.37,2013-05-26 09:12:00,
2013-05-26 05:17:00,35.1,33.0,29.72,WNW,303,2.3,2.3,92,0.00,-RA,,0.00,WeatherDisplay:10.37,2013-05-26 09:17:00,
2013-05-26 05:22:00,35.1,33.3,29.73,WNW,303,3.0,3.0,93,0.00,OVC,,0.00,WeatherDisplay:10.37,2013-05-26 09:22:00,
2013-05-26 05:27:00,35.2,33.4,29.73,WNW,303,2.3,2.3,93,0.00,OVC,,0.00,WeatherDisplay:10.37,2013-05-26 09:27:00,
2013-05-26 05:32:00,35.3,33.5,29.73,WNW,303,4.6,4.6,93,0.00,OVC,,0.00,WeatherDisplay:10.37,2013-05-26 09:32:00,
2013-05-26 05:37:00,35.5,33.7,29.73,WNW,303,1.1,1.1,93,0.00,OVC,,0.00,WeatherDisplay:10.37,2013-05-26 09:37:00,
2013-05-26 05:42:00,35.5,33.7,29.73,WNW,303,1.1,1.1,93,0.00,OVC,,0.00,WeatherDisplay:10.37,2013-05-26 09:42:00,
2013-05-26 05:47:00,35.4,33.6,29.73,WNW,303,2.3,2.3,93,0.00,OVC,,0.00,WeatherDisplay:10.37,2013-05-26 09:47:00,
2013-05-26 05:52:00,35.5,33.7,29.73,WNW,303,1.1,1.1,93,0.00,OVC,,0.00,WeatherDisplay:10.37,2013-05-26 09:52:00,
2013-05-26 05:57:00,35.4,33.6,29.73,WNW,303,2.0,2.0,93,0.00,OVC,,0.00,WeatherDisplay:10.37,2013-05-26 09:57:00,
2013-05-26 06:02:00,35.5,33.4,29.74,WNW,303,2.3,2.3,92,0.00,-RA,,0.00,WeatherDisplay:10.37,2013-05-26 10:02:00,
2013-05-26 06:07:00,35.5,33.4,29.74,WNW,303,1.1,1.1,92,0.00,-RA,,0.00,WeatherDisplay:10.37,2013-05-26 10:07:00,
2013-05-26 06:12:00,35.6,33.5,29.74,WNW,303,1.1,1.1,92,0.00,-RA,,0.00,WeatherDisplay:10.37,2013-05-26 10:12:00,
2013-05-26 06:17:00,35.5,33.4,29.74,WNW,303,0.0,0.0,92,0.00,-RA,,0.00,WeatherDisplay:10.37,2013-05-26 10:17:00,
2013-05-26 06:22:00,35.5,33.4,29.74,WNW,303,2.3,2.3,92,0.00,-RA,,0.00,WeatherDisplay:10.37,2013-05-26 10:22:00,
2013-05-26 06:27:00,35.3,33.2,29.74,WNW,303,2.3,2.3,92,0.00,-RA,,0.00,WeatherDisplay:10.37,2013-05-26 10:27:00,
2013-05-26 06:32:00,35.3,33.2,29.74,WNW,303,2.3,2.3,92,0.00,-RA,,0.00,WeatherDisplay:10.37,2013-05-26 10:32:00,
2013-05-26 06:37:00,35.2,33.1,29.74,WNW,303,1.1,1.1,92,0.00,-RA,,0.00,WeatherDisplay:10.37,2013-05-26 10:37:00,
2013-05-26 06:42:00,34.9,32.8,29.74,WNW,303,2.0,2.0,92,0.00,-RA,,0.00,WeatherDisplay:10.37,2013-05-26 10:42:00,
2013-05-26 06:47:00,35.0,32.9,29.74,WNW,303,3.5,3.5,92,0.00,-RA,,0.00,WeatherDisplay:10.37,2013-05-26 10:47:00,
2013-05-26 06:52:00,35.3,33.2,29.74,WNW,303,2.3,2.3,92,0.00,-RA,,0.00,WeatherDisplay:10.37,2013-05-26 10:52:00,
2013-05-26 06:57:00,35.1,33.0,29.74,NNW,348,2.3,2.3,92,0.00,-RA,,0.00,WeatherDisplay:10.37,2013-05-26 10:57:00,
2013-05-26 07:02:00,35.1,33.0,29.76,NNW,339,3.5,3.5,92,0.00,-RA,,0.00,WeatherDisplay:10.37,2013-05-26 11:02:00,
2013-05-26 07:07:00,35.2,33.1,29.76,WNW,292,3.5,3.5,92,0.00,-RA,,0.00,WeatherDisplay:10.37,2013-05-26 11:07:00,
2013-05-26 07:12:00,35.5,33.4,29.76,WNW,292,3.5,3.5,92,0.00,-RA,,0.00,WeatherDisplay:10.37,2013-05-26 11:12:00,
2013-05-26 07:17:00,35.7,33.6,29.76,WNW,291,2.3,2.3,92,0.00,-RA,,0.00,WeatherDisplay:10.37,2013-05-26 11:17:00,
2013-05-26 07:22:00,36.1,34.0,29.76,WNW,292,1.1,1.1,92,0.00,-RA,,0.00,WeatherDisplay:10.37,2013-05-26 11:22:00,
2013-05-26 07:27:00,35.9,33.8,29.76,WNW,293,2.3,2.3,92,0.00,-RA,,0.00,WeatherDisplay:10.37,2013-05-26 11:27:00,
2013-05-26 07:32:00,36.1,34.0,29.76,WNW,293,0.0,0.0,92,0.00,-RA,,0.00,WeatherDisplay:10.37,2013-05-26 11:32:00,
2013-05-26 07:37:00,36.5,34.4,29.76,South,180,1.1,0.0,92,0.00,-RA,,0.00,WeatherDisplay:10.37,2013-05-26 11:37:00,
2013-05-26 07:42:00,36.9,34.8,29.76,South,180,2.3,2.3,92,0.00,-RA,,0.00,WeatherDisplay:10.37,2013-05-26 11:42:00,
2013-05-26 07:47:00,36.7,34.6,29.76,South,180,0.0,0.2,92,0.00,-RA,,0.00,WeatherDisplay:10.37,2013-05-26 11:47:00,
2013-05-26 07:52:00,36.9,34.8,29.76,South,180,2.3,2.3,92,0.00,-RA,,0.00,WeatherDisplay:10.37,2013-05-26 11:52:00,
2013-05-26 07:57:00,37.2,35.1,29.76,South,180,2.3,2.3,92,0.00,-RA,,0.00,WeatherDisplay:10.37,2013-05-26 11:57:00,
2013-05-26 08:02:00,37.4,34.2,29.77,South,180,2.3,0.0,88,0.00,-RA,,0.00,WeatherDisplay:10.37,2013-05-26 12:02:00,
2013-05-26 08:07:00,37.4,34.2,29.77,South,180,0.0,0.0,88,0.00,-RA,,0.00,WeatherDisplay:10.37,2013-05-26 12:07:00,
2013-05-26 08:12:00,37.6,34.4,29.77,South,180,2.3,2.3,88,0.00,-RA,,0.00,WeatherDisplay:10.37,2013-05-26 12:12:00,
2013-05-26 08:17:00,38.0,34.8,29.77,SSW,206,2.3,2.3,88,0.00,-RA,,0.00,WeatherDisplay:10.37,2013-05-26 12:17:00,
2013-05-26 08:22:00,38.8,35.6,29.77,SSW,206,0.0,0.0,88,0.00,-RA,,0.00,WeatherDisplay:10.37,2013-05-26 12:22:00,
2013-05-26 08:27:00,40.1,36.8,29.77,SSW,206,1.1,1.1,88,0.00,-RA,,0.00,WeatherDisplay:10.37,2013-05-26 12:27:00,
2013-05-26 08:32:00,40.2,36.9,29.77,SSW,206,0.0,0.0,88,0.00,-RA,,0.00,WeatherDisplay:10.37,2013-05-26 12:32:00,
2013-05-26 08:37:00,39.5,36.2,29.77,SE,130,2.3,2.3,88,0.00,-RA,,0.00,WeatherDisplay:10.37,2013-05-26 12:37:00,
2013-05-26 08:42:00,40.0,36.7,29.77,SE,130,1.1,1.1,88,0.00,-RA,,0.00,WeatherDisplay:10.37,2013-05-26 12:42:00,
2013-05-26 08:47:00,41.2,37.9,29.77,SE,145,2.3,2.3,88,0.00,-RA,,0.00,WeatherDisplay:10.37,2013-05-26 12:47:00,
2013-05-26 08:52:00,41.0,37.7,29.77,NW,306,8.1,8.1,88,0.00,-RA,,0.00,WeatherDisplay:10.37,2013-05-26 12:52:00,
2013-05-26 08:57:00,40.9,37.6,29.77,NW,306,1.1,1.1,88,0.00,-RA,,0.00,WeatherDisplay:10.37,2013-05-26 12:57:00,
2013-05-26 09:02:00,41.7,36.6,29.79,NW,305,2.3,2.3,82,0.00,OVC,,0.00,WeatherDisplay:10.37,2013-05-26 13:02:00,
2013-05-26 09:07:00,41.2,36.1,29.79,NW,306,3.5,3.5,82,0.00,OVC,,0.00,WeatherDisplay:10.37,2013-05-26 13:07:00,
2013-05-26 09:12:00,41.9,36.8,29.79,SW,217,3.5,3.5,82,0.00,OVC,,0.00,WeatherDisplay:10.37,2013-05-26 13:12:00,
2013-05-26 09:17:00,41.5,36.4,29.79,NNE,20,3.5,3.5,82,0.00,OVC,,0.00,WeatherDisplay:10.37,2013-05-26 13:17:00,
2013-05-26 09:22:00,40.7,35.6,29.79,NW,324,3.5,3.5,82,0.00,OVC,,0.00,WeatherDisplay:10.37,2013-05-26 13:22:00,
2013-05-26 09:27:00,40.8,35.7,29.79,West,269,2.3,2.3,82,0.00,OVC,,0.00,WeatherDisplay:10.37,2013-05-26 13:27:00,
2013-05-26 09:32:00,41.1,36.0,29.79,NNW,329,5.8,5.8,82,0.00,OVC,,0.00,WeatherDisplay:10.37,2013-05-26 13:32:00,
2013-05-26 09:37:00,41.1,36.0,29.79,NW,324,8.1,8.1,82,0.00,OVC,,0.00,WeatherDisplay:10.37,2013-05-26 13:37:00,
2013-05-26 09:42:00,43.1,34.0,29.80,NW,308,4.0,4.0,70,0.00,BKN,,0.00,WeatherDisplay:10.37,2013-05-26 13:42:00,
2013-05-26 09:47:00,41.9,32.8,29.80,NW,312,4.6,4.6,70,0.00,BKN,,0.00,WeatherDisplay:10.37,2013-05-26 13:47:00,
2013-05-26 09:52:00,42.6,33.5,29.80,WNW,295,2.3,2.3,70,0.00,BKN,,0.00,WeatherDisplay:10.37,2013-05-26 13:52:00,
2013-05-26 09:57:00,42.7,33.6,29.80,WNW,296,3.5,3.5,70,0.00,BKN,,0.00,WeatherDisplay:10.37,2013-05-26 13:57:00,
2013-05-26 10:02:00,43.0,33.2,29.80,NNW,340,7.0,7.0,68,0.00,OVC,,0.00,WeatherDisplay:10.37,2013-05-26 14:02:00,
2013-05-26 10:07:00,42.7,32.9,29.80,WNW,303,5.8,5.8,68,0.00,OVC,,0.00,WeatherDisplay:10.37,2013-05-26 14:07:00,
2013-05-26 10:12:00,43.2,33.3,29.80,NW,304,5.8,5.8,68,0.00,OVC,,0.00,WeatherDisplay:10.37,2013-05-26 14:12:00,
2013-05-26 10:17:00,43.4,33.5,29.80,WNW,298,3.5,3.5,68,0.00,OVC,,0.00,WeatherDisplay:10.37,2013-05-26 14:17:00,
2013-05-26 10:22:00,43.2,33.3,29.80,WNW,285,8.1,8.1,68,0.00,OVC,,0.00,WeatherDisplay:10.37,2013-05-26 14:22:00,
2013-05-26 10:27:00,43.5,33.6,29.80,WNW,293,4.6,4.6,68,0.00,OVC,,0.00,WeatherDisplay:10.37,2013-05-26 14:27:00,
2013-05-26 10:32:00,44.2,34.3,29.80,WNW,300,2.3,2.3,68,0.00,OVC,,0.00,WeatherDisplay:10.37,2013-05-26 14:32:00,
2013-05-26 10:37:00,44.9,35.0,29.80,WNW,300,3.5,3.5,68,0.00,OVC,,0.00,WeatherDisplay:10.37,2013-05-26 14:37:00,
2013-05-26 10:42:00,44.4,31.8,29.81,WNW,295,6.0,6.0,61,0.00,OVC,,0.00,WeatherDisplay:10.37,2013-05-26 14:42:00,
2013-05-26 10:47:00,45.2,32.5,29.81,NW,317,5.8,5.8,61,0.00,OVC,,0.00,WeatherDisplay:10.37,2013-05-26 14:47:00,
2013-05-26 10:52:00,44.1,31.5,29.81,NNW,332,6.9,6.9,61,0.00,OVC,,0.00,WeatherDisplay:10.37,2013-05-26 14:52:00,
2013-05-26 10:57:00,44.4,31.8,29.81,WNW,292,7.0,7.0,61,0.00,OVC,,0.00,WeatherDisplay:10.37,2013-05-26 14:57:00,
2013-05-26 11:02:00,44.4,30.5,29.82,North,350,5.0,5.0,58,0.00,OVC,,0.00,WeatherDisplay:10.37,2013-05-26 15:02:00,
2013-05-26 11:07:00,44.4,30.5,29.82,WNW,301,8.1,8.1,58,0.00,OVC,,0.00,WeatherDisplay:10.37,2013-05-26 15:07:00,
2013-05-26 11:12:00,44.9,31.0,29.82,WNW,301,4.0,4.0,58,0.00,OVC,,0.00,WeatherDisplay:10.37,2013-05-26 15:12:00,
2013-05-26 11:17:00,44.5,30.6,29.82,NNW,329,5.0,5.0,58,0.00,OVC,,0.00,WeatherDisplay:10.37,2013-05-26 15:17:00,
2013-05-26 11:22:00,44.6,30.7,29.82,WNW,286,4.6,4.6,58,0.00,OVC,,0.00,WeatherDisplay:10.37,2013-05-26 15:22:00,
2013-05-26 11:27:00,45.3,31.4,29.82,WNW,301,4.0,4.0,58,0.00,OVC,,0.00,WeatherDisplay:10.37,2013-05-26 15:27:00,
2013-05-26 11:32:00,45.2,31.3,29.82,WNW,300,4.6,4.6,58,0.00,OVC,,0.00,WeatherDisplay:10.37,2013-05-26 15:32:00,
2013-05-26 11:37:00,45.1,31.2,29.82,NW,314,3.5,3.5,58,0.00,OVC,,0.00,WeatherDisplay:10.37,2013-05-26 15:37:00,
2013-05-26 11:42:00,45.7,31.8,29.82,NW,314,3.5,3.5,58,0.00,OVC,,0.00,WeatherDisplay:10.37,2013-05-26 15:42:00,
2013-05-26 11:47:00,45.7,31.8,29.82,NW,310,3.5,3.5,58,0.00,OVC,,0.00,WeatherDisplay:10.37,2013-05-26 15:47:00,
2013-05-26 11:52:00,46.1,32.1,29.82,NW,310,3.5,3.5,58,0.00,OVC,,0.00,WeatherDisplay:10.37,2013-05-26 15:52:00,
2013-05-26 11:57:00,46.6,32.6,29.82,NW,308,3.5,3.5,58,0.00,OVC,,0.00,WeatherDisplay:10.37,2013-05-26 15:57:00,
2013-05-26 12:02:00,46.7,31.8,29.83,West,281,3.5,3.5,56,0.00,BKN,,0.00,WeatherDisplay:10.37,2013-05-26 16:02:00,
2013-05-26 12:07:00,47.8,32.9,29.83,SSE,149,2.3,2.3,56,0.00,BKN,,0.00,WeatherDisplay:10.37,2013-05-26 16:07:00,
2013-05-26 12:12:00,47.6,32.7,29.83,SSW,202,4.0,4.0,56,0.00,BKN,,0.00,WeatherDisplay:10.37,2013-05-26 16:12:00,
2013-05-26 12:17:00,47.5,32.6,29.83,WSW,243,3.5,3.5,56,0.00,BKN,,0.00,WeatherDisplay:10.37,2013-05-26 16:17:00,
2013-05-26 12:22:00,47.6,32.7,29.83,NW,318,6.0,6.0,56,0.00,BKN,,0.00,WeatherDisplay:10.37,2013-05-26 16:22:00,
2013-05-26 12:27:00,47.7,32.8,29.83,NW,314,4.0,4.0,56,0.00,BKN,,0.00,WeatherDisplay:10.37,2013-05-26 16:27:00,
2013-05-26 12:32:00,47.4,32.5,29.83,NW,307,5.8,5.8,56,0.00,BKN,,0.00,WeatherDisplay:10.37,2013-05-26 16:32:00,
2013-05-26 12:37:00,47.5,32.6,29.83,NNW,332,5.8,5.8,56,0.00,BKN,,0.00,WeatherDisplay:10.37,2013-05-26 16:37:00,
2013-05-26 12:42:00,47.4,32.5,29.83,NNW,328,5.8,5.8,56,0.00,BKN,,0.00,WeatherDisplay:10.37,2013-05-26 16:42:00,
2013-05-26 12:47:00,47.2,32.3,29.83,NNW,329,5.8,5.8,56,0.00,BKN,,0.00,WeatherDisplay:10.37,2013-05-26 16:47:00,
2013-05-26 12:52:00,47.5,32.6,29.83,WNW,300,5.0,5.0,56,0.00,BKN,,0.00,WeatherDisplay:10.37,2013-05-26 16:52:00,
2013-05-26 12:57:00,47.4,32.5,29.83,NW,305,3.5,3.5,56,0.00,BKN,,0.00,WeatherDisplay:10.37,2013-05-26 16:57:00,
2013-05-26 13:02:00,47.8,31.0,29.84,NW,318,3.5,3.5,52,0.00,OVC,,0.00,WeatherDisplay:10.37,2013-05-26 17:02:00,
2013-05-26 13:07:00,47.6,30.8,29.84,NW,315,3.5,3.5,52,0.00,OVC,,0.00,WeatherDisplay:10.37,2013-05-26 17:07:00,
2013-05-26 13:12:00,47.7,30.9,29.84,NW,308,3.5,3.5,52,0.00,OVC,,0.00,WeatherDisplay:10.37,2013-05-26 17:12:00,
2013-05-26 13:17:00,48.2,31.4,29.84,WNW,298,3.5,3.5,52,0.00,OVC,,0.00,WeatherDisplay:10.37,2013-05-26 17:17:00,
2013-05-26 13:22:00,47.7,30.9,29.84,NW,309,8.1,8.1,52,0.00,OVC,,0.00,WeatherDisplay:10.37,2013-05-26 17:22:00,
2013-05-26 13:27:00,47.8,31.0,29.84,WNW,303,3.5,3.5,52,0.00,OVC,,0.00,WeatherDisplay:10.37,2013-05-26 17:27:00,
2013-05-26 13:32:00,47.6,30.8,29.84,NNW,331,4.0,4.0,52,0.00,OVC,,0.00,WeatherDisplay:10.37,2013-05-26 17:32:00,
2013-05-26 13:37:00,47.4,30.6,29.84,WNW,299,5.8,5.8,52,0.00,OVC,,0.00,WeatherDisplay:10.37,2013-05-26 17:37:00,
2013-05-26 13:42:00,47.6,30.8,29.84,WNW,303,3.5,3.5,52,0.00,OVC,,0.00,WeatherDisplay:10.37,2013-05-26 17:42:00,
2013-05-26 13:47:00,47.5,30.7,29.84,WNW,296,8.1,8.1,52,0.00,OVC,,0.00,WeatherDisplay:10.37,2013-05-26 17:47:00,
2013-05-26 13:52:00,47.9,31.1,29.84,NW,309,3.5,3.5,52,0.00,OVC,,0.00,WeatherDisplay:10.37,2013-05-26 17:52:00,
2013-05-26 13:57:00,47.9,31.1,29.84,WNW,286,8.1,8.1,52,0.00,OVC,,0.00,WeatherDisplay:10.37,2013-05-26 17:57:00,
2013-05-26 14:02:00,47.3,28.6,29.85,NW,307,8.1,8.1,48,0.00,OVC,,0.00,WeatherDisplay:10.37,2013-05-26 18:02:00,
2013-05-26 14:07:00,47.3,28.6,29.85,NW,312,8.1,8.1,48,0.00,OVC,,0.00,WeatherDisplay:10.37,2013-05-26 18:07:00,
2013-05-26 14:12:00,48.1,29.3,29.85,NW,309,6.9,6.9,48,0.00,OVC,,0.00,WeatherDisplay:10.37,2013-05-26 18:12:00,
2013-05-26 14:17:00,47.7,28.9,29.85,WNW,300,8.1,8.1,48,0.00,OVC,,0.00,WeatherDisplay:10.37,2013-05-26 18:17:00,
2013-05-26 14:22:00,47.9,29.1,29.85,WNW,294,5.8,5.8,48,0.00,OVC,,0.00,WeatherDisplay:10.37,2013-05-26 18:22:00,
2013-05-26 14:27:00,47.8,29.0,29.85,NW,309,4.6,4.6,48,0.00,OVC,,0.00,WeatherDisplay:10.37,2013-05-26 18:27:00,
2013-05-26 14:32:00,48.5,29.7,29.85,NW,305,4.6,4.6,48,0.00,OVC,,0.00,WeatherDisplay:10.37,2013-05-26 18:32:00,
2013-05-26 14:37:00,48.7,29.9,29.85,NW,305,4.6,4.6,48,0.00,OVC,,0.00,WeatherDisplay:10.37,2013-05-26 18:37:00,
2013-05-26 14:42:00,47.2,28.5,29.85,WNW,302,8.0,8.0,48,0.00,OVC,,0.00,WeatherDisplay:10.37,2013-05-26 18:42:00,
2013-05-26 14:47:00,46.7,28.0,29.85,WNW,300,6.9,6.9,48,0.00,OVC,,0.00,WeatherDisplay:10.37,2013-05-26 18:47:00,
2013-05-26 14:52:00,46.8,28.1,29.85,NW,310,6.9,6.9,48,0.00,OVC,,0.00,WeatherDisplay:10.37,2013-05-26 18:52:00,
2013-05-26 14:57:00,46.9,28.2,29.85,NW,305,5.8,5.8,48,0.00,OVC,,0.00,WeatherDisplay:10.37,2013-05-26 18:57:00,
2013-05-26 15:02:00,46.9,30.2,29.88,NW,308,9.2,9.2,52,0.00,OVC,,0.00,WeatherDisplay:10.37,2013-05-26 19:02:00,
2013-05-26 15:07:00,47.0,30.3,29.88,WNW,289,5.0,5.0,52,0.00,OVC,,0.00,WeatherDisplay:10.37,2013-05-26 19:07:00,
2013-05-26 15:12:00,47.3,30.5,29.88,NW,306,4.6,4.6,52,0.00,OVC,,0.00,WeatherDisplay:10.37,2013-05-26 19:12:00,
2013-05-26 15:17:00,47.8,31.0,29.88,NW,307,3.5,3.5,52,0.00,OVC,,0.00,WeatherDisplay:10.37,2013-05-26 19:17:00,
2013-05-26 15:22:00,48.0,31.2,29.88,NW,304,5.8,5.8,52,0.00,OVC,,0.00,WeatherDisplay:10.37,2013-05-26 19:22:00,
2013-05-26 15:27:00,48.9,32.0,29.88,NW,308,5.8,5.8,52,0.00,OVC,,0.00,WeatherDisplay:10.37,2013-05-26 19:27:00,
2013-05-26 15:32:00,49.0,32.1,29.88,WNW,300,4.6,4.6,52,0.00,OVC,,0.00,WeatherDisplay:10.37,2013-05-26 19:32:00,
2013-05-26 15:37:00,49.3,32.4,29.88,WNW,300,6.9,6.9,52,0.00,OVC,,0.00,WeatherDisplay:10.37,2013-05-26 19:37:00,
2013-05-26 15:42:00,49.0,32.1,29.88,West,281,6.9,6.9,52,0.00,OVC,,0.00,WeatherDisplay:10.37,2013-05-26 19:42:00,
2013-05-26 15:47:00,49.0,32.1,29.88,NW,313,3.5,3.5,52,0.00,OVC,,0.00,WeatherDisplay:10.37,2013-05-26 19:47:00,
2013-05-26 15:52:00,49.4,32.5,29.88,NW,316,4.6,4.6,52,0.00,OVC,,0.00,WeatherDisplay:10.37,2013-05-26 19:52:00,
2013-05-26 15:57:00,48.7,31.8,29.88,WNW,288,6.9,6.9,52,0.00,OVC,,0.00,WeatherDisplay:10.37,2013-05-26 19:57:00,
2013-05-26 16:02:00,48.6,31.8,29.91,NW,308,5.8,5.8,52,0.00,OVC,,0.00,WeatherDisplay:10.37,2013-05-26 20:02:00,
2013-05-26 16:07:00,49.2,32.3,29.91,North,0,4.6,4.6,52,0.00,OVC,,0.00,WeatherDisplay:10.37,2013-05-26 20:07:00,
2013-05-26 16:12:00,49.5,32.6,29.91,NW,320,5.0,5.0,52,0.00,OVC,,0.00,WeatherDisplay:10.37,2013-05-26 20:12:00,
2013-05-26 16:17:00,49.3,32.4,29.91,WNW,301,6.9,6.9,52,0.00,OVC,,0.00,WeatherDisplay:10.37,2013-05-26 20:17:00,
2013-05-26 16:22:00,49.0,32.1,29.91,NW,323,5.8,5.8,52,0.00,OVC,,0.00,WeatherDisplay:10.37,2013-05-26 20:22:00,
2013-05-26 16:27:00,50.8,33.8,29.91,WNW,291,6.0,6.0,52,0.00,OVC,,0.00,WeatherDisplay:10.37,2013-05-26 20:27:00,
2013-05-26 16:32:00,50.3,33.3,29.91,NW,326,11.5,11.5,52,0.00,OVC,,0.00,WeatherDisplay:10.37,2013-05-26 20:32:00,
2013-05-26 16:37:00,50.0,33.1,29.91,WNW,298,11.5,11.5,52,0.00,OVC,,0.00,WeatherDisplay:10.37,2013-05-26 20:37:00,
2013-05-26 16:42:00,49.3,32.4,29.91,NW,305,10.4,10.4,52,0.00,OVC,,0.00,WeatherDisplay:10.37,2013-05-26 20:42:00,
2013-05-26 16:47:00,49.0,32.1,29.91,NW,309,8.1,8.1,52,0.00,OVC,,0.00,WeatherDisplay:10.37,2013-05-26 20:47:00,
2013-05-26 16:52:00,50.6,33.6,29.91,NNW,328,4.6,4.6,52,0.00,OVC,,0.00,WeatherDisplay:10.37,2013-05-26 20:52:00,
2013-05-26 16:57:00,49.9,33.0,29.91,NW,306,9.2,9.2,52,0.00,OVC,,0.00,WeatherDisplay:10.37,2013-05-26 20:57:00,
2013-05-26 17:02:00,50.0,32.1,29.92,WNW,303,9.2,9.2,50,0.00,OVC,,0.00,WeatherDisplay:10.37,2013-05-26 21:02:00,
2013-05-26 17:07:00,49.5,31.6,29.92,NW,311,10.4,10.4,50,0.00,OVC,,0.00,WeatherDisplay:10.37,2013-05-26 21:07:00,
2013-05-26 17:12:00,49.9,32.0,29.92,WNW,288,5.8,5.8,50,0.00,OVC,,0.00,WeatherDisplay:10.37,2013-05-26 21:12:00,
2013-05-26 17:17:00,49.8,31.9,29.92,NNW,343,3.5,3.5,50,0.00,OVC,,0.00,WeatherDisplay:10.37,2013-05-26 21:17:00,
2013-05-26 17:22:00,49.8,31.9,29.92,NNW,331,7.0,7.0,50,0.00,OVC,,0.00,WeatherDisplay:10.37,2013-05-26 21:22:00,
2013-05-26 17:27:00,49.1,31.2,29.92,NNW,340,4.6,4.6,50,0.00,OVC,,0.00,WeatherDisplay:10.37,2013-05-26 21:27:00,
2013-05-26 17:32:00,49.5,31.6,29.92,WNW,284,8.1,8.1,50,0.00,OVC,,0.00,WeatherDisplay:10.37,2013-05-26 21:32:00,
2013-05-26 17:37:00,49.1,31.2,29.92,WNW,287,8.0,8.0,50,0.00,OVC,,0.00,WeatherDisplay:10.37,2013-05-26 21:37:00,
2013-05-26 17:42:00,48.6,30.8,29.92,NW,308,8.1,8.1,50,0.00,OVC,,0.00,WeatherDisplay:10.37,2013-05-26 21:42:00,
2013-05-26 17:47:00,48.7,30.9,29.92,NW,313,3.5,3.5,50,0.00,OVC,,0.00,WeatherDisplay:10.37,2013-05-26 21:47:00,
2013-05-26 17:52:00,48.6,30.8,29.92,NW,310,6.9,6.9,50,0.00,OVC,,0.00,WeatherDisplay:10.37,2013-05-26 21:52:00,
2013-05-26 17:57:00,48.7,30.9,29.92,NW,312,3.5,3.5,50,0.00,OVC,,0.00,WeatherDisplay:10.37,2013-05-26 21:57:00,
2013-05-26 18:02:00,48.6,30.8,29.92,NW,315,5.8,5.8,50,0.00,OVC,,0.00,WeatherDisplay:10.37,2013-05-26 22:02:00,
2013-05-26 18:07:00,48.3,30.5,29.92,NW,308,6.9,6.9,50,0.00,OVC,,0.00,WeatherDisplay:10.37,2013-05-26 22:07:00,
2013-05-26 18:12:00,48.2,29.4,29.94,WNW,285,7.0,7.0,48,0.00,BKN,,0.00,WeatherDisplay:10.37,2013-05-26 22:12:00,
2013-05-26 18:17:00,48.1,29.3,29.94,NW,306,5.8,5.8,48,0.00,BKN,,0.00,WeatherDisplay:10.37,2013-05-26 22:17:00,
2013-05-26 18:22:00,48.3,29.5,29.94,NNW,343,5.8,5.8,48,0.00,BKN,,0.00,WeatherDisplay:10.37,2013-05-26 22:22:00,
2013-05-26 18:27:00,48.7,29.9,29.94,WNW,285,5.8,5.8,48,0.00,BKN,,0.00,WeatherDisplay:10.37,2013-05-26 22:27:00,
2013-05-26 18:32:00,47.7,28.9,29.94,NW,305,6.9,6.9,48,0.00,BKN,,0.00,WeatherDisplay:10.37,2013-05-26 22:32:00,
2013-05-26 18:37:00,47.4,28.7,29.94,NW,317,5.8,5.8,48,0.00,BKN,,0.00,WeatherDisplay:10.37,2013-05-26 22:37:00,
2013-05-26 18:42:00,47.8,29.0,29.94,NNW,348,5.8,5.8,48,0.00,BKN,,0.00,WeatherDisplay:10.37,2013-05-26 22:42:00,
2013-05-26 18:47:00,47.9,29.1,29.94,NW,310,4.6,4.6,48,0.00,BKN,,0.00,WeatherDisplay:10.37,2013-05-26 22:47:00,
2013-05-26 18:52:00,47.3,28.6,29.94,NW,315,5.8,5.8,48,0.00,BKN,,0.00,WeatherDisplay:10.37,2013-05-26 22:52:00,
2013-05-26 18:57:00,47.0,28.3,29.94,NW,313,4.6,4.6,48,0.00,BKN,,0.00,WeatherDisplay:10.37,2013-05-26 22:57:00,
2013-05-26 19:02:00,46.7,30.9,29.98,NW,313,3.5,3.5,54,0.00,OVC,,0.00,WeatherDisplay:10.37,2013-05-26 23:02:00,
2013-05-26 19:07:00,46.9,31.1,29.98,NW,313,3.5,3.5,54,0.00,OVC,,0.00,WeatherDisplay:10.37,2013-05-26 23:07:00,
2013-05-26 19:12:00,47.0,31.2,29.98,NW,313,1.1,1.1,54,0.00,OVC,,0.00,WeatherDisplay:10.37,2013-05-26 23:12:00,
2013-05-26 19:17:00,46.7,30.9,29.98,NNW,327,3.5,3.5,54,0.00,OVC,,0.00,WeatherDisplay:10.37,2013-05-26 23:17:00,
2013-05-26 19:22:00,46.6,30.8,29.98,SSW,195,3.5,3.5,54,0.00,OVC,,0.00,WeatherDisplay:10.37,2013-05-26 23:22:00,
2013-05-26 19:27:00,46.5,30.7,29.98,SSW,197,3.5,3.5,54,0.00,OVC,,0.00,WeatherDisplay:10.37,2013-05-26 23:27:00,
2013-05-26 19:32:00,46.3,30.5,29.98,WNW,292,3.5,3.5,54,0.00,OVC,,0.00,WeatherDisplay:10.37,2013-05-26 23:32:00,
2013-05-26 19:37:00,46.0,30.3,29.98,WNW,292,4.0,4.0,54,0.00,OVC,,0.00,WeatherDisplay:10.37,2013-05-26 23:37:00,
2013-05-26 19:42:00,46.1,30.4,29.98,NW,307,7.0,7.0,54,0.00,OVC,,0.00,WeatherDisplay:10.37,2013-05-26 23:42:00,
2013-05-26 19:47:00,46.0,30.3,29.98,NW,311,3.5,3.5,54,0.00,OVC,,0.00,WeatherDisplay:10.37,2013-05-26 23:47:00,
2013-05-26 19:52:00,45.8,30.1,29.98,NW,307,3.5,3.5,54,0.00,OVC,,0.00,WeatherDisplay:10.37,2013-05-26 23:52:00,
2013-05-26 19:57:00,45.6,29.9,29.98,NW,306,6.0,6.0,54,0.00,OVC,,0.00,WeatherDisplay:10.37,2013-05-26 23:57:00,
2013-05-26 20:02:00,45.4,32.3,30.01,NW,305,4.0,4.0,60,0.00,BKN,,0.00,WeatherDisplay:10.37,2013-05-27 00:02:00,
2013-05-26 20:07:00,45.2,32.1,30.01,NW,305,3.5,3.5,60,0.00,BKN,,0.00,WeatherDisplay:10.37,2013-05-27 00:07:00,
2013-05-26 20:12:00,45.1,32.0,30.01,NW,305,3.5,3.6,60,0.00,BKN,,0.00,WeatherDisplay:10.37,2013-05-27 00:12:00,
2013-05-26 20:17:00,45.1,32.0,30.01,NW,305,3.5,3.5,60,0.00,BKN,,0.00,WeatherDisplay:10.37,2013-05-27 00:17:00,
2013-05-26 20:22:00,45.0,31.9,30.01,NW,305,3.5,3.5,60,0.00,BKN,,0.00,WeatherDisplay:10.37,2013-05-27 00:22:00,
2013-05-26 20:27:00,44.9,31.8,30.01,NW,305,3.5,3.5,60,0.00,BKN,,0.00,WeatherDisplay:10.37,2013-05-27 00:27:00,
2013-05-26 20:32:00,44.8,31.8,30.01,NW,305,3.5,3.5,60,0.00,BKN,,0.00,WeatherDisplay:10.37,2013-05-27 00:32:00,
2013-05-26 20:37:00,44.9,31.8,30.01,NW,305,3.5,3.5,60,0.00,BKN,,0.00,WeatherDisplay:10.37,2013-05-27 00:37:00,
2013-05-26 20:42:00,44.8,31.8,30.01,NW,306,4.0,4.0,60,0.00,BKN,,0.00,WeatherDisplay:10.37,2013-05-27 00:42:00,
2013-05-26 20:47:00,44.7,31.7,30.01,NW,306,3.0,3.0,60,0.00,BKN,,0.00,WeatherDisplay:10.37,2013-05-27 00:47:00,
2013-05-26 20:52:00,44.3,31.3,30.01,NW,306,3.5,3.5,60,0.00,BKN,,0.00,WeatherDisplay:10.37,2013-05-27 00:52:00,
2013-05-26 20:57:00,44.5,31.5,30.01,WNW,294,5.0,5.0,60,0.00,BKN,,0.00,WeatherDisplay:10.37,2013-05-27 00:57:00,
2013-05-26 21:02:00,44.3,32.1,30.03,NW,326,5.0,5.0,62,0.00,FEW,,0.00,WeatherDisplay:10.37,2013-05-27 01:02:00,
2013-05-26 21:07:00,44.2,32.0,30.03,NW,313,3.5,3.5,62,0.00,FEW,,0.00,WeatherDisplay:10.37,2013-05-27 01:07:00,
2013-05-26 21:12:00,44.0,31.8,30.03,NW,313,3.5,3.5,62,0.00,FEW,,0.00,WeatherDisplay:10.37,2013-05-27 01:12:00,
2013-05-26 21:17:00,44.1,31.9,30.03,NW,313,3.5,3.5,62,0.00,FEW,,0.00,WeatherDisplay:10.37,2013-05-27 01:17:00,
2013-05-26 21:22:00,44.1,31.9,30.03,NW,313,2.3,2.3,62,0.00,FEW,,0.00,WeatherDisplay:10.37,2013-05-27 01:22:00,
2013-05-26 21:27:00,43.8,31.6,30.03,NW,313,2.3,2.3,62,0.00,FEW,,0.00,WeatherDisplay:10.37,2013-05-27 01:27:00,
2013-05-26 21:32:00,44.0,31.8,30.03,NW,313,2.3,2.3,62,0.00,FEW,,0.00,WeatherDisplay:10.37,2013-05-27 01:32:00,
2013-05-26 21:37:00,43.8,31.6,30.03,NW,313,3.5,3.5,62,0.00,FEW,,0.00,WeatherDisplay:10.37,2013-05-27 01:37:00,
2013-05-26 21:42:00,43.7,31.5,30.03,NW,313,2.3,2.3,62,0.00,FEW,,0.00,WeatherDisplay:10.37,2013-05-27 01:42:00,
2013-05-26 21:47:00,43.3,31.1,30.03,NW,313,1.1,1.1,62,0.00,FEW,,0.00,WeatherDisplay:10.37,2013-05-27 01:47:00,
2013-05-26 21:52:00,42.7,30.6,30.03,NW,313,1.1,1.1,62,0.00,FEW,,0.00,WeatherDisplay:10.37,2013-05-27 01:52:00,
2013-05-26 21:57:00,42.4,30.3,30.03,NW,313,1.1,1.1,62,0.00,FEW,,0.00,WeatherDisplay:10.37,2013-05-27 01:57:00,
2013-05-26 22:02:00,42.2,31.3,30.04,NW,313,0.0,0.0,65,0.00,CLR,,0.00,WeatherDisplay:10.37,2013-05-27 02:02:00,
2013-05-26 22:07:00,42.1,31.2,30.04,NW,313,1.1,0.0,65,0.00,CLR,,0.00,WeatherDisplay:10.37,2013-05-27 02:07:00,
2013-05-26 22:12:00,41.9,31.0,30.04,NW,313,2.3,2.3,65,0.00,CLR,,0.00,WeatherDisplay:10.37,2013-05-27 02:12:00,
2013-05-26 22:17:00,41.7,30.8,30.04,NW,313,2.3,2.3,65,0.00,CLR,,0.00,WeatherDisplay:10.37,2013-05-27 02:17:00,
2013-05-26 22:22:00,41.8,30.9,30.04,NW,313,2.3,2.3,65,0.00,CLR,,0.00,WeatherDisplay:10.37,2013-05-27 02:22:00,
2013-05-26 22:27:00,41.7,30.8,30.04,NW,313,2.3,2.3,65,0.00,CLR,,0.00,WeatherDisplay:10.37,2013-05-27 02:27:00,
2013-05-26 22:32:00,41.6,30.7,30.04,NW,313,3.5,3.5,65,0.00,CLR,,0.00,WeatherDisplay:10.37,2013-05-27 02:32:00,
2013-05-26 22:37:00,41.9,31.0,30.04,NW,313,3.5,3.5,65,0.00,CLR,,0.00,WeatherDisplay:10.37,2013-05-27 02:37:00,
2013-05-26 22:42:00,41.7,30.8,30.04,NW,313,3.5,3.5,65,0.00,CLR,,0.00,WeatherDisplay:10.37,2013-05-27 02:42:00,
2013-05-26 22:47:00,41.6,30.7,30.04,NW,313,2.3,2.3,65,0.00,CLR,,0.00,WeatherDisplay:10.37,2013-05-27 02:47:00,
2013-05-26 22:52:00,41.6,30.7,30.04,NW,313,3.5,3.5,65,0.00,CLR,,0.00,WeatherDisplay:10.37,2013-05-27 02:52:00,
2013-05-26 22:57:00,41.6,30.7,30.04,NW,313,3.5,3.5,65,0.00,CLR,,0.00,WeatherDisplay:10.37,2013-05-27 02:57:00,
2013-05-26 23:02:00,41.9,31.0,30.04,NW,313,3.5,3.5,65,0.00,CLR,,0.00,WeatherDisplay:10.37,2013-05-27 03:02:00,
2013-05-26 23:07:00,41.8,30.9,30.04,NW,313,3.5,3.5,65,0.00,CLR,,0.00,WeatherDisplay:10.37,2013-05-27 03:07:00,
2013-05-26 23:12:00,41.8,33.8,30.05,NW,313,2.3,2.3,73,0.00,CLR,,0.00,WeatherDisplay:10.37,2013-05-27 03:12:00,
2013-05-26 23:17:00,41.7,33.7,30.05,NW,313,2.3,2.3,73,0.00,CLR,,0.00,WeatherDisplay:10.37,2013-05-27 03:17:00,
2013-05-26 23:22:00,41.7,33.7,30.05,NW,313,3.5,3.5,73,0.00,CLR,,0.00,WeatherDisplay:10.37,2013-05-27 03:22:00,
2013-05-26 23:27:00,41.5,33.5,30.05,NW,313,2.3,2.3,73,0.00,CLR,,0.00,WeatherDisplay:10.37,2013-05-27 03:27:00,
2013-05-26 23:32:00,41.5,33.5,30.05,NW,313,2.3,2.3,73,0.00,CLR,,0.00,WeatherDisplay:10.37,2013-05-27 03:32:00,
2013-05-26 23:37:00,41.4,33.4,30.05,NW,313,2.3,2.3,73,0.00,CLR,,0.00,WeatherDisplay:10.37,2013-05-27 03:37:00,
2013-05-26 23:42:00,41.4,33.4,30.05,NW,313,3.5,3.5,73,0.00,CLR,,0.00,WeatherDisplay:10.37,2013-05-27 03:42:00,
2013-05-26 23:47:00,41.4,33.4,30.05,NW,313,2.3,2.3,73,0.00,CLR,,0.00,WeatherDisplay:10.37,2013-05-27 03:47:00,
2013-05-26 23:52:00,41.4,33.4,30.05,NW,313,3.5,3.5,73,0.00,CLR,,0.00,WeatherDisplay:10.37,2013-05-27 03:52:00,
2013-05-26 23:57:00,41.3,33.3,30.05,NW,313,3.5,3.5,73,0.00,CLR,,0.00,WeatherDisplay:10.37,2013-05-27 03:57:00,